Miscellaneous Local Product
Issued by NWS Hastings, NE

Home | Current Version | Previous Version | Text Only | Print | Product List | Glossary On
Versions: 1 2 3 4 5 6 7 8 9 10 11 12 13 14 15 16 17 18 19 20 21 22 23 24 25 26 27 28 29 30 31 32 33 34 35 36 37 38 39 40 41 42 43 44 45 46 47 48 49 50
000
AXUS43 KGID 051402
MISGRI

GID CWA HOURLY WEATHER ROUNDUP
NATIONAL WEATHER SERVICE HASTINGS NE
900 AM CDT SAT SEP 05 2015

NOTE: "FAIR" INDICATES FEW OR NO CLOUDS BELOW 12,000 FEET WITH NO
SIGNIFICANT WEATHER AND/OR OBSTRUCTIONS TO VISIBILITY.

...SOUTH CENTRAL NEBRASKA...

CITY           SKY/WX    TMP DP  RH WIND       PRES   REMARKS
GRAND ISLAND   SUNNY     77  67  71 S16       29.90R
HASTINGS       SUNNY     77  66  68 S13G21    29.91S
KEARNEY        SUNNY     79  63  57 S16G23    29.89S
ORD            SUNNY     76  64  66 S10G20    29.86R
YORK           SUNNY     75  68  78 S13G18    29.92S
AURORA         SUNNY     76  69  80 S13G18    29.91S
LEXINGTON      MOSUNNY   75  63  64 S13G20    29.88R
HOLDREGE       MOSUNNY   77  62  60 S13G20    29.90S
HEBRON         SUNNY     78  67  68 S15G23    29.94S

...NEBRASKA PANHANDLE...

CITY           SKY/WX    TMP DP  RH WIND       PRES   REMARKS
CHADRON        CLOUDY    68  59  73 SW3       29.84R
ALLIANCE       PTSUNNY   68  59  73 W8        29.88R
SCOTTSBLUFF    LGT RAIN  67  56  67 NW5       29.90R
SIDNEY         MOSUNNY   69  58  67 NW8       29.91R

...WESTERN AND NORTH CENTRAL NEBRASKA...

CITY           SKY/WX    TMP DP  RH WIND       PRES   REMARKS
VALENTINE      CLOUDY    71  63  75 S7        29.82S
AINSWORTH      CLOUDY    72  64  74 S6        29.84S
ONEILL         MOSUNNY   75  65  71 S13       29.84S
BROKEN BOW     MOSUNNY   75  62  64 S10       29.87R
IMPERIAL       CLOUDY    75  55  49 S15G21    29.87R
NORTH PLATTE   CLOUDY    74  59  59 S8        29.85R
MCCOOK         CLOUDY    78  58  49 S10       29.86S

...EASTERN NEBRASKA...

CITY           SKY/WX    TMP DP  RH WIND       PRES   REMARKS
NORFOLK        SUNNY     78  68  71 S20G28    29.87S
SO SIOUX CITY  MOSUNNY   76  70  82 S12       29.89R
TEKAMAH        MOSUNNY   78  71  79 S10G18    29.92S
COLUMBUS       SUNNY     77  64  65 S10       29.90F
ALBION         SUNNY     76  67  73 S12       29.89S
OMAHA EPPLEY   MOSUNNY   78  70  76 S14       29.95R
OFFUTT AFB     SUNNY     78  70  77 SE9       29.94S
MILLARD        SUNNY     77  70  79 SE7G17    29.94S
LINCOLN        SUNNY     79  70  74 S17       29.94R
NEBRASKA CITY  SUNNY     77  67  70 S13       29.98S
BEATRICE       SUNNY     77  69  76 S13G20    29.96S
FALLS CITY     SUNNY     79  70  74 S10       29.99R

...NORTHERN KANSAS...

CITY           SKY/WX    TMP DP  RH WIND       PRES   REMARKS
GOODLAND       CLOUDY    71  57  61 S12       29.93R
HILL CITY      CLOUDY    78  63  59 S17G24    29.91S
NORTON         SUNNY     75  57  53 S8G22     29.89S
PHILLIPSBURG   SUNNY     82  64  54 S14       29.91R
SMITH CENTER   SUNNY     77  64  65 S15       29.93S
HAYS           PTSUNNY   79  63  57 S21G29    29.93S
RUSSELL        PTSUNNY   78  65  63 S20G25    29.94R
CONCORDIA      SUNNY     79  68  69 S15G24    29.96R
SALINA         SUNNY     82  68  62 S15G22    29.97R
TOPEKA         SUNNY     79  70  74 S13       30.01R



USA.gov is the U.S. government's official web portal to all federal, state and local government web resources and services.